Find Starlink 2487

NORAD ID: 48144 Int'l Des: 2021-027 Owner: SPXS Country: US Constellation: starlink operational
LEOCIRCULARSTARLINK_TYPE

Live Position

Loading 3D Globe...

About Starlink 2487

Description loading...

Upcoming Passes

Passes for default location (London). Set your location on the main map for personalized predictions.

Altitude History

Loading altitude history...

Two-Line Element Set

1 48144U 21027BE 26105.33335648 .00010568 00000-0 36504-3 0 9993
2 48144 53.1575 342.2399 0002921 43.7626 123.7769 15.30500972 5825
Epoch: Apr 15, 2026 • Age: 5 hours

Current Status

Altitude 488.9 km
Velocity 7.62 km/s
Sub-Earth Point -38.59°S, 159.39°E
Launch Date Apr 7, 2021
Age 5 years
Type internet

Technical Details

Classification Payload
Mass 260.00 kg
Dry Mass 248.00 kg
Total Mass 260.00 kg
Length 0.20 m
Diameter 2.80 m
Span 9.00 m
Shape Box + pan
Manufacturer SPXS
Bus Type Starlink
Phase Status In Orbit
Owner/State SPXS/US

Most Searched